カタログに戻る

STARLINK-35861

運用中通信VLEO
NORAD 66355·PAYLOAD·🇺🇸 United States

打ち上げ Nov 6, 2025 から Vandenberg Space Force Base

Loading…

次のパス (今後24時間)

TLE

最新Source: CelesTrak SupGP

元期: Sep 15, 2026, 03:49 UTC

1 66355C 25254H   26258.15951389 -.00024848  00000+0 -73423-3 0  2584
2 66355  53.1585  70.7449 0001228  89.3772  49.7810 15.34398520    14

AllMySatでSTARLINK-35861をリアルタイム追跡

Download on the App Store